CFG742 SVMI-LFMN

Flight info

Callsign CFG742
Flight time N/A
Altitude 29000
Route SOSKA2 OPUTU DCT EDNAK UP533 OVIVU/N0512F310 UP533 FAMPS DCT CITRS/M085F310 DCT 22N054W DCT 2650N DCT 30N044W/M085F330 DCT 3240N DCT 34N036W DCT 3630N DCT GINSU/M084F270 H105 VSM H103 DOKAS/M085F350 DCT KOMUT/N0487F240 UM744 BUSEN UN870 TOFEF N870 UREDI/N0494F360 N870 PONEN/N0491F370 N870 SEROX/N0493F360 N870 DIBER UN870 SOSUR Z16 AGAKI Z152 LACAZ/N0499F330 Q302 ABLAK
Aircraft B742/H-SDFHIRWXY/L

Departure

Time 2025-10-07 22:34
Airport Maiquetía Simón Bolívar International Airport (SVMI)

Arrival

Time N/A
Airport Nice-Côte d'Azur Airport (LFMN)
Time Latitude Longitude Altitude Speed Heading
2025-10-07 22:11 10.60108 -67.00554 240 ft 0 kts 359°
2025-10-07 22:18 10.60050 -67.00553 241 ft 2 kts 359°
2025-10-07 22:19 10.60021 -67.00555 242 ft 2 kts 21°
2025-10-07 22:19 10.59999 -67.00574 242 ft 2 kts 59°
2025-10-07 22:20 10.59992 -67.00602 243 ft 2 kts 90°
2025-10-07 22:27 10.59986 -67.00555 243 ft 10 kts 118°
2025-10-07 22:27 10.59913 -67.00623 246 ft 16 kts 266°
2025-10-07 22:28 10.59903 -67.00953 237 ft 30 kts 269°
2025-10-07 22:28 10.59901 -67.01247 227 ft 4 kts 328°
2025-10-07 22:29 10.59961 -67.01250 225 ft 12 kts
2025-10-07 22:29 10.60166 -67.01253 226 ft 13 kts 357°
2025-10-07 22:30 10.60320 -67.01260 231 ft 12 kts 357°
2025-10-07 22:30 10.60377 -67.01240 233 ft 0 kts 89°
2025-10-07 22:31 10.60406 -67.00354 240 ft 107 kts 88°
2025-10-07 22:32 10.60477 -66.98257 166 ft 186 kts 88°
2025-10-07 22:32 10.60518 -66.96964 554 ft 182 kts 86°
2025-10-07 22:33 10.60892 -66.94406 1256 ft 185 kts 81°
2025-10-07 22:33 10.61490 -66.91876 1971 ft 186 kts 75°
2025-10-07 22:34 10.61993 -66.89340 2665 ft 186 kts 79°
2025-10-07 22:34 10.62747 -66.85070 3168 ft 228 kts 80°
2025-10-07 22:35 10.63339 -66.81679 3574 ft 250 kts 80°
2025-10-07 22:35 10.63948 -66.78178 3958 ft 259 kts 80°
2025-10-07 22:36 10.65242 -66.70729 4972 ft 272 kts 80°
2025-10-07 22:37 10.65572 -66.68835 5306 ft 271 kts 80°
2025-10-07 22:37 10.66229 -66.65044 5940 ft 272 kts 80°
2025-10-07 22:38 10.66890 -66.61230 6517 ft 275 kts 80°
2025-10-07 22:38 10.67895 -66.55429 7333 ft 280 kts 80°
2025-10-07 22:39 10.68572 -66.51517 7898 ft 282 kts 80°
2025-10-07 22:39 10.69798 -66.47727 8429 ft 285 kts 64°
2025-10-07 22:40 10.70690 -66.45908 8718 ft 286 kts 64°
2025-10-07 22:40 10.72451 -66.42252 9146 ft 294 kts 64°
2025-10-07 22:41 10.74287 -66.38384 9347 ft 312 kts 65°
2025-10-07 22:41 10.76227 -66.34285 9547 ft 330 kts 65°
2025-10-07 22:42 10.78271 -66.29948 9748 ft 350 kts 65°
2025-10-07 22:42 10.81627 -66.22990 10044 ft 379 kts 58°
2025-10-07 22:43 10.85484 -66.19132 10256 ft 399 kts 37°
2025-10-07 22:43 10.90150 -66.15765 10457 ft 419 kts 37°
2025-10-07 22:44 10.94998 -66.12213 10750 ft 435 kts 37°
2025-10-07 22:44 10.97474 -66.10376 11107 ft 438 kts 38°
2025-10-07 22:45 11.02375 -66.06722 12095 ft 434 kts 38°
2025-10-07 22:45 11.07190 -66.03126 13515 ft 418 kts 38°
2025-10-07 22:46 11.11859 -65.99629 14343 ft 417 kts 38°
2025-10-07 22:46 11.18978 -65.94292 15178 ft 426 kts 38°
2025-10-07 22:47 11.23794 -65.90685 15815 ft 429 kts 38°
2025-10-07 22:47 11.26220 -65.88868 16123 ft 431 kts 38°
2025-10-07 22:48 11.33530 -65.83390 16998 ft 437 kts 38°
2025-10-07 22:48 11.38500 -65.79663 17529 ft 442 kts 38°
2025-10-07 22:49 11.43504 -65.75927 18077 ft 447 kts 36°
2025-10-07 22:49 11.48827 -65.72574 18589 ft 453 kts 32°
2025-10-07 22:50 11.57081 -65.67658 19418 ft 458 kts 32°
2025-10-07 22:51 11.62613 -65.64325 19930 ft 462 kts 32°
2025-10-07 22:51 11.65415 -65.62629 20181 ft 464 kts 32°
2025-10-07 22:51 11.70984 -65.59254 20664 ft 468 kts 32°
2025-10-07 22:52 11.76636 -65.55824 21083 ft 473 kts 32°
2025-10-07 22:52 11.82361 -65.52348 21488 ft 477 kts 32°
2025-10-07 22:53 11.88078 -65.48876 21909 ft 481 kts 32°
2025-10-07 22:53 11.93874 -65.45355 22307 ft 484 kts 32°
2025-10-07 22:54 12.02643 -65.40024 22897 ft 488 kts 32°
2025-10-07 22:55 12.08520 -65.36448 23252 ft 491 kts 32°
2025-10-07 22:55 12.11479 -65.34647 23430 ft 492 kts 32°
2025-10-07 22:55 12.17356 -65.31051 23764 ft 495 kts 32°
2025-10-07 22:56 12.23315 -65.27409 24106 ft 497 kts 32°
2025-10-07 22:56 12.29301 -65.23756 24400 ft 500 kts 32°
2025-10-07 22:57 12.35324 -65.20083 24697 ft 502 kts 32°
2025-10-07 22:57 12.41349 -65.16407 24972 ft 504 kts 32°
2025-10-07 22:58 12.53448 -65.09019 25500 ft 507 kts 32°
2025-10-07 23:00 12.78010 -64.93993 26371 ft 515 kts 32°
2025-10-07 23:02 13.02832 -64.78774 27148 ft 521 kts 32°
2025-10-07 23:04 13.23551 -64.63786 27625 ft 521 kts 52°
2025-10-07 23:06 13.43854 -64.37271 28212 ft 526 kts 53°
2025-10-07 23:08 13.59776 -64.16631 28565 ft 527 kts 53°
2025-10-07 23:10 13.81792 -63.91207 28726 ft 529 kts 50°